This is the latest recevied weather packets stored in our database for station/object N4BBA. If no packets are shown the sender has not sent any weather packets the latest 10 day(s).
| Time | Temp. | Humidity | Pressure | Rain* | Wind** | Luminosity | Snow |
|---|---|---|---|---|---|---|---|
| 1778086070 | 25° C | 60% | 1013.8 hPa | 0 mm | - | 390 W/m² | - |
| 1778085766 | 24.44° C | 60% | 1014.1 hPa | 0 mm | - | 260 W/m² | - |
| 1778085463 | 25° C | 59% | 1014 hPa | 0 mm | - | 248 W/m² | - |
| 1778085158 | 25.56° C | 59% | 1014.1 hPa | 0 mm | - | 403 W/m² | - |
| 1778084855 | 25.56° C | 60% | 1014 hPa | 0 mm | - | 434 W/m² | - |
| 1778084553 | 25.56° C | 60% | 1014 hPa | 0 mm | - | 643 W/m² | - |
| 1778084250 | 25° C | 61% | 1014.1 hPa | 0 mm | - | 555 W/m² | - |
| 1778083947 | 24.44° C | 62% | 1014.3 hPa | 0 mm | - | 406 W/m² | - |
| 1778083644 | 24.44° C | 62% | 1014.1 hPa | 0 mm | - | 344 W/m² | - |
| 1778083341 | 24.44° C | 61% | 1013.9 hPa | 0 mm | - | 330 W/m² | - |
| 1778083039 | 24.44° C | 62% | 1014 hPa | 0 mm | - | 534 W/m² | - |
| 1778082736 | 24.44° C | 63% | 1013.9 hPa | 0 mm | - | 565 W/m² | - |
| 1778081598 | 23.33° C | 64% | 1013.9 hPa | 0 mm | - | 271 W/m² | - |
| 1778081295 | 23.33° C | 64% | 1014 hPa | 0 mm | - | 296 W/m² | - |
| 1778080992 | 22.78° C | 64% | 1013.9 hPa | 0 mm | - | 293 W/m² | - |
| 1778080691 | 22.78° C | 64% | 1014.2 hPa | 0 mm | - | 297 W/m² | - |
| 1778080387 | 22.78° C | 65% | 1014.2 hPa | 0 mm | - | 271 W/m² | - |
| 1778080084 | 22.78° C | 64% | 1014.2 hPa | 0 mm | - | 250 W/m² | - |
| 1778079781 | 22.78° C | 64% | 1014.4 hPa | 0 mm | - | 255 W/m² | - |
| 1778079478 | 22.78° C | 64% | 1014.5 hPa | 0 mm | - | 359 W/m² | - |
| 1778079174 | 22.78° C | 64% | 1014.7 hPa | 0 mm | - | 310 W/m² | - |
| 1778078872 | 22.78° C | 65% | 1014.6 hPa | 0 mm | - | 284 W/m² | - |
| 1778078568 | 22.78° C | 65% | 1014.5 hPa | 0 mm | - | 324 W/m² | - |
| 1778078266 | 22.78° C | 65% | 1014.6 hPa | 0 mm | - | 378 W/m² | - |
| 1778077963 | 22.78° C | 66% | 1014.6 hPa | 0 mm | - | 371 W/m² | - |
* Rain latest hour (hover to see other rain measurements)
** Current wind speed in m/s (hover to see current wind gust speed)